Location: Campo Claro
(10.4907°N, 66.8285°W)
Time: 07:06:44
(UTC+00:00)

Cosmos 1553 Rocket - Pass Details

Date: 04 July 2022
Orbit: 941 x 1008 km, 82.9° (Epoch: 12 August)

Event Time Altitude Azimuth Distance (km) Brightness Sun altitude
Rises 00:17:44 0° 201° (SSW) 3,674 6.9 -19.5°
Reaches altitude 10° 00:20:24 10° 208° (SSW) 2,736 6.3 -20.1°
Maximum altitude 00:26:10 38° 275° (W) 1,462 5.4 -21.3°
Drops below altitude 10° 00:32:01 10° 342° (NNW) 2,769 7.0 -22.5°
Sets 00:34:45 0° 350° (N) 3,724 7.6 -23.1°
